Regional Weather Roundup
Issued by NWS

Home | Current Version | Previous Version | Text Only | Print | Product List | Glossary Off
Versions: 1 2 3 4 5 6 7 8 9 10 11 12 13 14 15 16 17 18 19 20 21 22 23 24 25 26 27 28 29 30 31 32 33 34 35 36 37 38 39 40 41 42 43 44 45 46 47 48 49 50

000
ASUS45 KSLC 241410
RWRUT

UTAH REGIONAL WEATHER ROUNDUP
NATIONAL WEATHER SERVICE SALT LAKE CITY UT
800 AM MDT SUN JUL 24 2016

UTZ001>011-023>025-241500-

NORTHERN UTAH

CITY           SKY/WX    TMP DP  RH WIND       PRES   REMARKS
BRIGHAM CITY     N/A     62  32  32 W5        30.12R
HILL AFB       SUNNY     63  29  27 E18G25    30.13R
LOGAN          SUNNY     58  41  53 CALM      30.18R
OGDEN          SUNNY     66  32  28 S5        30.11R
PROVO AIRPORT  MOSUNNY   63  36  36 CALM      30.13R
SALT LAKE CITY MOSUNNY   70  41  34 S5        30.10R
VERNAL         MOSUNNY   69  37  30 W5        30.16R
WENDOVER       MOSUNNY   72  30  21 NE5       30.13R
HEBER CITY     SUNNY     54  34  47 CALM      30.23R

$$

UTZ012>022-026-027-241500-

SOUTHERN/CENTRAL UTAH

CITY           SKY/WX    TMP DP  RH WIND       PRES   REMARKS
BLANDING       MOSUNNY   73  47  39 CALM      30.27R
BRYCE CANYON   MOSUNNY   60  37  42 NW5       30.35R
CEDAR CITY     SUNNY     71  38  29 CALM      30.17R
DELTA          SUNNY     66  28  24 CALM      30.13R
MILFORD        SUNNY     65  24  21 N5        30.15R
MOAB/CYNLANDS  SUNNY     82  40  22 S6        30.06R
PRICE          SUNNY     74  31  20 CALM      30.18R
ST GEORGE      SUNNY     82  41  23 SE5       29.97R
KANAB          SUNNY     70  37  30 N6        30.16R

$$

REGIONAL REPORTS     COLORADO/ARIZONA

CITY           SKY/WX    TMP DP  RH WIND       PRES   REMARKS
CRAIG, CO      SUNNY     61  45  55 W5        30.26R
GRAND JUNCTION SUNNY     78  44  29 E15       30.13R
RIFLE          CLOUDY    71  46  40 E6        30.21R
MONTROSE       SUNNY     71  44  37 SE10      30.24S
CORTEZ         CLOUDY    72  44  36 W3        30.20R
PAGE, AZ       SUNNY     81  41  24 SE6       30.05R
GRAND CANYON   SUNNY     64  49  57 CALM      30.29R
KINGMAN        SUNNY     83  50  31 SE8       30.01R
FLAGSTAFF      PTSUNNY   64  55  72 SW3       30.31R

$$

REGIONAL REPORTS    NEVADA/IDAHO/WYOMING

CITY           SKY/WX    TMP DP  RH WIND       PRES   REMARKS
LAS VEGAS, NV  MOSUNNY   89  42  19 W3        29.82R
ELY            MOSUNNY   50  21  32 S7        30.26R
ELKO           SUNNY     57  30  35 E3        30.20R
POCATELLO, ID  SUNNY     66  28  24 SW5       30.19R
BURLEY         SUNNY     57  40  52 CALM      30.15R
EVANSTON, WY   SUNNY     57  24  28 CALM      30.31R
ROCK SPRINGS   SUNNY     61  33  35 NE5       30.30R
KEMMERER         N/A     54  28  37 N8        30.33S

$$



USA.gov is the U.S. government's official web portal to all federal, state and local government web resources and services.